Tracking 28052 objects as of 22-Sep-2023
HD Live streaming from Space Station
objects crossing your sky now

STARLINK-4374

Track STARLINK-4374 now!
10-day predictions


NORAD ID: 53652
Int'l Code: 2022-105E
Perigee: 569.2 km
Apogee: 571.1 km
Inclination: 97.7 °
Period: 95.9 minutes
Semi major axis: 6941 km
RCS: Unknown
Launch date: August 31, 2022
Source: United States (US)
Launch site: AIR FORCE WESTERN TEST RANGE (AFWTR)
Your satellite tracking list
Your tracking list is empty




NASA's NSSDC Master Catalog

Two Line Element Set (TLE):
1 53652U 22105E   23264.69725339  .00009050  00000-0  70814-3 0  9999
2 53652  97.6557 144.3804 0001374  92.0295 268.1086 15.01266558 58203
Source of the keplerian elements: AFSPC